Location: Erp
(42.9417°N, 1.2009°E)
Time: 12:45:11
(UTC+00:00)

Cosmos 1959 Rocket - Pass Details

Date: 26 April 2026
Orbit: 946 x 997 km, 82.9° (Epoch: 12 May)

Event Time Altitude Azimuth Distance (km) Brightness Sun altitude
Rises 20:59:20 0° 244° (WSW) 3,697 7.8 -20.8°
Reaches altitude 10° 21:03:34 10° 271° (W) 2,745 7.5 -21.3°
Maximum altitude 21:06:18 13° 297° (WNW) 2,528 7.6 -21.7°
Drops below altitude 10° 21:09:02 10° 324° (NW) 2,737 8.0 -22.0°
Sets 21:13:17 0° 351° (N) 3,678 8.4 -22.6°
